Location: Freistadt
(48.5112°N, 14.5013°E)
Time: 01:35:34
(UTC+02:00)

O/OREOS (USA 219) - Pass Details

Date: 07 April 2023
Orbit: 621 x 646 km, 72.0° (Epoch: 22 May)

Event Time Altitude Azimuth Distance (km) Brightness Sun altitude
Exits shadow 03:10:39 14° 114° (ESE) 1,765 ? -28.3°
Maximum altitude 03:11:38 15° 99° (E) 1,716 ? -28.2°
Drops below altitude 10° 03:14:13 10° 65° (ENE) 2,029 ? -27.9°
Sets 03:17:19 0° 42° (NE) 2,938 ? -27.6°
